Weather Roundup
Issued by NWS Chicago, IL

Home | Current Version | Previous Version | Text Only | Print | Product List | Glossary On
Versions: 1 2 3 4 5 6 7 8 9 10 11 12 13 14 15 16 17 18 19 20 21 22 23 24 25 26 27 28 29 30 31 32 33 34 35 36 37 38 39 40 41 42 43 44 45 46 47 48 49 50
000
NZUS59 KLOT 230210
HRRLOT

CHICAGO AREA WEATHER ROUNDUP
NATIONAL WEATHER SERVICE CHICAGO/ROMEOVILLE IL
800 PM CST MON DEC 22 2014

NOTE: "FAIR" INDICATES FEW OR NO CLOUDS BELOW 12,000 FEET WITH NO
SIGNIFICANT WEATHER AND/OR OBSTRUCTIONS TO VISIBILITY.

* THESE STATIONS ARE NOT UNDER NWS QUALITY CONTROL. THEY ALSO MAY NOT
  REPORT WEATHER SUCH AS PRECIPITATION OR FOG.

ILZ005-006-012>014-019>023-230300-
NORTHEAST ILLINOIS

CITY           SKY/WX    TMP DP  RH WIND       PRES   REMARKS
OHARE          LGT RAIN  40  39  97 SE14      29.65F FOG
MIDWAY         LGT RAIN  43  40  89 SE14      29.66F FOG
AURORA         LGT RAIN  42  39  89 SE12      29.63F FOG
LANSING*       DRIZZLE   40  39  95 SE18      29.66F
JOLIET*        RAIN      40  39  96 SE10      29.64S
WAUKEGAN       LGT RAIN  38  37  97 SE14G23   29.66F FOG
DUPAGE AIRPORT LGT RAIN  42  40  92 SE8       29.63F FOG
WHEELING       CLOUDY    40  38  93 SE12      29.67F FOG
KANKAKEE*      LGT RAIN  40  39  96 E17       29.64F
MORRIS*        RAIN      42  42  99 SE13      29.61F
LEWIS AIRPORT* LGT RAIN  41  41 100 SE14G21   29.63F
NORTHERLY IS     N/A     37  36  96 E10         N/A
$$

WIZ051-052-058>065-066-070>072-230300-
SOUTHEAST WISCONSIN

CITY           SKY/WX    TMP DP  RH WIND       PRES   REMARKS
MILWAUKEE      LGT RAIN  39  37  92 SE16      29.69F FOG
KENOSHA*       LGT RAIN  39  38  96 SE15      29.67F FOG
RACINE*        LGT RAIN  39  37  92 SE14      29.70F FOG
BURLINGTON     MIX PCPN  37  37  99 E10       29.65S
WAUKESHA       LGT RAIN  36  36 100 E12G23    29.67F FOG
WEST BEND      LGT RAIN  36  36 100 E13       29.69F
$$

INZ001>003-010>013-019-020-230300-
NORTHWEST INDIANA

CITY           SKY/WX    TMP DP  RH WIND       PRES   REMARKS
GARY*          LGT RAIN  41  37  87 SE14      29.67F
MICHIGAN CITY* NOT AVBL
RENSSELAER*    NOT AVBL
VALPARAISO     CLOUDY    39  37  92 E12       29.70F FOG
$$

LMZ740>746-230300-
SOUTHERN LAKE MICHIGAN

STATION/POSITION TIME  SKY/WX   TEMP WIND        PRES    VSBY
                                AIR  DIR/SP/G
                 (UTC)          (F)  (DEG/KT/KT) (MB)    (MI)
HARRISON CRIB    0200            39  130/ 15/ 18   N/A
BURNHAM HARBOR   0200            37  110/  9/ 12   N/A
CALUMET HARBOR   0200            41  110/ 11/ 17 1003.7F
BURNS HARBOR     NOT AVBL
MICHIGAN CITY    NOT AVBL
$$

ABBREVIATIONS USED IN REMARKS
   TC - TEMPERATURE IN CELSIUS
  WCI - WIND CHILL INDEX
   HX - HEAT INDEX
  VSB - VISIBILITY
$$



USA.gov is the U.S. government's official web portal to all federal, state and local government web resources and services.